EW9434 Weather Reports


time (UTC)temp
C
wind
direction
speed
KPH
gust
KPH
rain 1hr
cm
rain 24hr
cm
rain mn
cm
humidity
%
barometer
mb
20260508134246 14 126 6.4 19.3 0.00 0.00 0.00 54 1014.1
20260508133721 14 142 8.0 19.3 0.00 0.00 0.00 56 1014.1
20260508133216 14 148 6.4 20.9 0.00 0.00 0.00 54 1014.1
20260508133017 13 288 8.0 20.9 0.00 0.00 0.00 53 1014.5
20260508132714 13 286 6.4 20.9 0.00 0.00 0.00 55 1014.1
20260508132209 13 288 6.4 20.9 0.00 0.00 0.00 55 1014.1
20260508131709 13 285 4.8 16.1 0.00 0.00 0.00 58 1014.1
20260508131527 12 284 4.8 12.9 0.00 0.00 0.00 58 1014.5
20260508131139 12 284 3.2 11.3 0.00 0.00 0.00 61 1014.1
20260508130638 12 285 3.2 8.0 0.00 0.00 0.00 62 1014.1
20260508130136 12 285 3.2 6.4 0.00 0.00 0.00 62 1014.1
20260508130104 12 285 3.2 6.4 0.00 0.00 0.00 62 1014.4
20260508125609 12 289 4.8 12.9 0.00 0.00 0.00 62 1014.1
20260508125105 12 285 4.8 12.9 0.00 0.00 0.00 61 1014.0
20260508124603 11 99 4.8 16.1 0.00 0.00 0.00 62 1014.1
20260508124532 11 121 3.2 9.7 0.00 0.00 0.00 63 1014.4
20260508124038 11 147 4.8 16.1 0.00 0.00 0.00 63 1014.0
20260508123734 11 120 3.2 8.0 0.00 0.00 0.00 64 1014.0
20260508123025 11 120 3.2 8.0 0.00 0.00 0.00 63 1014.3
20260508122945 11 119 4.8 14.5 0.00 0.00 0.00 63 1013.9
20260508122418 11 285 4.8 14.5 0.00 0.00 0.00 64 1013.9
20260508121915 11 292 4.8 12.9 0.00 0.00 0.00 64 1014.0
20260508121610 10 286 4.8 12.9 0.00 0.00 0.00 64 1014.3
20260508121413 10 285 4.8 11.3 0.00 0.00 0.00 64 1013.9
20260508120848 10 285 4.8 11.3 0.00 0.00 0.00 65 1014.0
20260508120338 10 273 4.8 11.3 0.00 0.00 0.00 66 1014.0
20260508120056 10 286 3.2 11.3 0.00 0.00 0.00 65 1013.9
20260508120029 10 284 4.8 9.7 0.00 0.00 0.00 65 1014.3
20260508115535 10 286 3.2 8.0 0.00 0.00 0.00 65 1013.8
20260508114743 10 285 3.2 4.8 0.00 0.00 0.00 66 1013.9
20260508114540 10 285 1.6 4.8 0.00 0.00 0.00 66 1014.2
20260508114241 10 285 3.2 8.0 0.00 0.00 0.00 66 1013.8
20260508113715 10 285 3.2 8.0 0.00 0.00 0.00 66 1013.8
20260508113414 10 285 3.2 8.0 0.00 0.00 0.00 65 1013.7
20260508113009 10 285 1.6 4.8 0.00 0.00 0.00 65 1014.0
20260508112620 10 285 3.2 9.7 0.00 0.00 0.00 65 1013.7
20260508112120 10 285 3.2 9.7 0.00 0.00 0.00 65 1013.6
20260508111600 10 285 3.2 11.3 0.00 0.00 0.00 65 1013.6
20260508111534 10 285 3.2 9.7 0.00 0.00 0.00 65 1013.9
20260508111306 10 285 3.2 11.3 0.00 0.00 0.00 65 1013.5
20260508110546 10 285 3.2 8.0 0.00 0.00 0.00 65 1013.5
20260508110527 10 285 1.6 6.4 0.00 0.00 0.00 65 1013.4
20260508110104 9 285 0.0 6.4 0.00 0.00 0.00 66 1013.7
20260508105544 9 285 1.6 6.4 0.00 0.00 0.00 66 1013.4
20260508105021 9 285 1.6 6.4 0.00 0.00 0.00 66 1013.4
20260508104533 9 285 0.0 4.8 0.00 0.00 0.00 66 1013.7
20260508104456 9 285 1.6 6.4 0.00 0.00 0.00 66 1013.4
20260508103932 9 285 3.2 11.3 0.00 0.00 0.00 66 1013.5
20260508103431 9 285 3.2 11.3 0.00 0.00 0.00 66 1013.5
20260508103125 9 285 1.6 6.4 0.00 0.00 0.00 66 1013.5
20260508103058 9 285 3.2 6.4 0.00 0.00 0.00 66 1013.8
20260508102340 9 285 1.6 6.4 0.00 0.00 0.00 67 1013.5
20260508101818 9 285 1.6 6.4 0.00 0.00 0.00 67 1013.4
20260508101507 8 285 0.0 6.4 0.00 0.00 0.00 67 1013.8
20260508101317 9 285 3.2 6.4 0.00 0.00 0.00 67 1013.4
20260508100812 9 285 1.6 6.4 0.00 0.00 0.00 67 1013.4
20260508100313 9 285 1.6 4.8 0.00 0.00 0.00 67 1013.3
20260508100027 8 285 1.6 6.4 0.00 0.00 0.00 67 1013.7
20260508095756 9 285 1.6 6.4 0.00 0.00 0.00 66 1013.4
20260508095517 9 285 1.6 4.8 0.00 0.00 0.00 66 1013.4
20260508095217 9 285 1.6 4.8 0.00 0.00 0.00 66 1013.4
20260508094530 8 285 1.6 4.8 0.00 0.00 0.00 66 1013.7
20260508094237 9 285 1.6 4.8 0.00 0.00 0.00 66 1013.5
20260508093717 9 285 1.6 4.8 0.00 0.00 0.00 66 1013.5
20260508093219 8 285 1.6 4.8 0.00 0.00 0.00 67 1013.4
20260508093041 8 285 1.6 4.8 0.00 0.00 0.00 67 1013.8
20260508092649 8 285 1.6 4.8 0.00 0.00 0.00 67 1013.5
20260508092121 8 285 1.6 4.8 0.00 0.00 0.00 67 1013.5
20260508091618 8 285 1.6 4.8 0.00 0.00 0.00 67 1013.4
20260508091503 8 285 0.0 4.8 0.00 0.00 0.00 67 1013.8
20260508091322 8 285 1.6 4.8 0.00 0.00 0.00 67 1013.4
20260508090600 8 285 0.0 3.2 0.00 0.00 0.00 67 1013.6
20260508090100 8 285 0.0 3.2 0.00 0.00 0.00 66 1013.6
20260508090029 8 285 0.0 1.6 0.00 0.00 0.00 66 1014.0
20260508085811 8 285 0.0 3.2 0.00 0.00 0.00 66 1013.5
20260508085043 8 285 1.6 6.4 0.00 0.00 0.00 66 1013.5
20260508084603 8 285 0.0 6.4 0.00 0.00 0.00 66 1013.7
20260508084527 8 285 1.6 6.4 0.00 0.00 0.00 66 1013.3
20260508084008 8 285 0.0 3.2 0.00 0.00 0.00 66 1013.4
20260508083446 8 285 1.6 4.8 0.00 0.00 0.00 66 1013.4
20260508083201 8 285 1.6 4.8 0.00 0.00 0.00 66 1013.3
20260508083030 8 285 1.6 4.8 0.00 0.00 0.00 66 1013.7
20260508082440 8 286 1.6 6.4 0.00 0.00 0.00 67 1013.3
20260508081939 8 285 1.6 6.4 0.00 0.00 0.00 67 1013.3
20260508081509 8 285 0.0 4.8 0.00 0.00 0.00 66 1013.7
20260508081437 8 285 1.6 4.8 0.00 0.00 0.00 67 1013.3
20260508081407 8 285 1.6 4.8 0.00 0.00 0.00 66 1013.4
20260508080619 8 285 3.2 8.0 0.00 0.00 0.00 65 1013.2
20260508075826 8 286 3.2 6.4 0.00 0.00 0.00 65 1013.3
20260508075747 8 286 1.6 6.4 0.00 0.00 0.00 65 1013.3
20260508074757 8 286 1.6 6.4 0.00 0.00 0.00 65 1013.3
20260508074525 8 286 0.0 6.4 0.00 0.00 0.00 65 1013.7
20260508074237 8 286 1.6 6.4 0.00 0.00 0.00 65 1013.4
20260508073711 9 286 1.6 4.8 0.00 0.00 0.00 65 1013.3
20260508073148 8 286 1.6 6.4 0.00 0.00 0.00 64 1013.2
20260508073011 8 286 1.6 6.4 0.00 0.00 0.00 65 1013.6
20260508072618 8 286 1.6 6.4 0.00 0.00 0.00 65 1013.2
20260508072118 8 286 1.6 4.8 0.00 0.00 0.00 65 1013.3
20260508071552 8 286 1.6 4.8 0.00 0.00 0.00 65 1013.3
20260508071533 8 286 1.6 4.8 0.00 0.00 0.00 65 1013.7
20260508071050 9 286 1.6 4.8 0.00 0.00 0.00 64 1013.4
20260508070820 9 286 1.6 4.8 0.00 0.00 0.00 63 1013.4
20260508070027 9 286 3.2 6.4 0.00 0.00 0.00 62 1013.5
20260508070003 9 286 0.0 6.4 0.00 0.00 0.00 62 1013.9
20260508065459 9 286 3.2 8.0 0.00 0.00 0.00 61 1013.5
20260508064955 9 286 3.2 6.4 0.00 0.00 0.00 61 1013.4
20260508064544 9 286 1.6 12.9 0.00 0.00 0.00 61 1013.9
20260508064454 9 285 3.2 12.9 0.00 0.00 0.00 61 1013.5
20260508063926 9 286 3.2 8.0 0.00 0.00 0.00 62 1013.7
20260508063904 9 286 3.2 8.0 0.00 0.00 0.00 63 1013.8
20260508063109 8 286 1.6 6.4 0.00 0.00 0.00 64 1014.3
20260508062921 9 286 1.6 8.0 0.00 0.00 0.00 64 1013.9
20260508062418 9 286 3.2 11.3 0.00 0.00 0.00 64 1013.9
20260508061903 9 286 3.2 11.3 0.00 0.00 0.00 64 1013.9
20260508061622 9 286 3.2 11.3 0.00 0.00 0.00 65 1014.0
20260508061532 9 286 1.6 8.0 0.00 0.00 0.00 66 1014.4
20260508061127 9 286 3.2 11.3 0.00 0.00 0.00 65 1013.9
20260508060558 9 285 3.2 6.4 0.00 0.00 0.00 64 1014.0
20260508060046 9 285 1.6 6.4 0.00 0.00 0.00 64 1014.4
20260508055812 9 286 1.6 6.4 0.00 0.00 0.00 64 1013.9
20260508055245 9 286 1.6 4.8 0.00 0.00 0.00 64 1013.9
20260508054715 9 285 0.0 4.8 0.00 0.00 0.00 65 1013.9
20260508054514 9 285 0.0 4.8 0.00 0.00 0.00 65 1014.4
20260508054436 9 285 0.0 3.2 0.00 0.00 0.00 65 1014.1
20260508053707 9 285 1.6 3.2 0.00 0.00 0.00 65 1014.1
20260508053204 10 285 1.6 4.8 0.00 0.00 0.00 65 1014.1
20260508053027 9 285 1.6 4.8 0.00 0.00 0.00 64 1014.4
20260508052656 10 285 1.6 4.8 0.00 0.00 0.00 64 1014.1
20260508052153 10 285 1.6 8.0 0.00 0.00 0.00 64 1014.0
20260508051651 10 285 3.2 8.0 0.00 0.00 0.00 64 1014.0
20260508051558 9 285 1.6 8.0 0.00 0.00 0.00 64 1014.4
20260508051148 10 285 3.2 6.4 0.00 0.00 0.00 64 1013.9
20260508050848 10 285 3.2 6.4 0.00 0.00 0.00 63 1013.9
20260508050055 10 285 3.2 9.7 0.00 0.00 0.00 63 1013.8
20260508050004 10 285 0.0 9.7 0.00 0.00 0.00 63 1014.2
20260508045814 10 285 3.2 9.7 0.00 0.00 0.00 63 1013.8
20260508045028 10 285 3.2 8.0 0.00 0.00 0.00 63 1013.9
20260508044516 10 285 3.2 8.0 0.00 0.00 0.00 63 1014.3
20260508044458 10 285 3.2 8.0 0.00 0.00 0.00 63 1013.9
20260508043958 10 286 3.2 6.4 0.00 0.00 0.00 63 1013.9
20260508043432 10 285 1.6 4.8 0.00 0.00 0.00 63 1013.8
20260508043122 10 286 1.6 8.0 0.00 0.00 0.00 62 1013.8
20260508043033 10 285 1.6 4.8 0.00 0.00 0.00 62 1014.2
20260508042401 10 286 3.2 8.0 0.00 0.00 0.00 62 1013.8
20260508041831 10 286 1.6 6.4 0.00 0.00 0.00 61 1013.8
20260508041520 10 285 1.6 4.8 0.00 0.00 0.00 61 1014.2
20260508041328 10 285 1.6 4.8 0.00 0.00 0.00 61 1013.8
20260508040805 10 285 1.6 4.8 0.00 0.00 0.00 61 1013.8
20260508040247 10 285 1.6 4.8 0.00 0.00 0.00 61 1013.8
20260508040018 10 285 1.6 4.8 0.00 0.00 0.00 60 1014.2
20260508035748 10 285 3.2 8.0 0.00 0.00 0.00 61 1013.7
20260508035246 10 285 3.2 8.0 0.00 0.00 0.00 61 1013.6
20260508034939 10 285 1.6 6.4 0.00 0.00 0.00 61 1013.7
20260508034516 10 285 1.6 4.8 0.00 0.00 0.00 61 1014.1
20260508034216 10 285 1.6 6.4 0.00 0.00 0.00 61 1013.7
20260508033649 10 286 1.6 6.4 0.00 0.00 0.00 61 1013.7
20260508033146 10 286 1.6 6.4 0.00 0.00 0.00 60 1013.8
20260508033005 10 286 0.0 6.4 0.00 0.00 0.00 60 1014.2
20260508032622 10 286 1.6 4.8 0.00 0.00 0.00 60 1013.8
20260508032052 11 286 1.6 4.8 0.00 0.00 0.00 59 1013.8
20260508031550 11 286 1.6 8.0 0.00 0.00 0.00 58 1013.8
20260508031520 10 286 0.0 8.0 0.00 0.00 0.00 58 1014.2
20260508031023 11 286 3.2 8.0 0.00 0.00 0.00 57 1013.6
20260508030520 11 285 3.2 8.0 0.00 0.00 0.00 56 1013.6
20260508030010 11 285 1.6 6.4 0.00 0.00 0.00 56 1014.0
20260508025951 11 285 3.2 6.4 0.00 0.00 0.00 56 1013.6
20260508025450 11 285 3.2 6.4 0.00 0.00 0.00 55 1013.6
20260508025147 11 286 1.6 4.8 0.00 0.00 0.00 55 1013.7
20260508024527 11 285 1.6 4.8 0.00 0.00 0.00 55 1014.2
20260508024356 11 285 1.6 4.8 0.00 0.00 0.00 54 1013.7
20260508023854 11 286 1.6 4.8 0.00 0.00 0.00 54 1013.8
20260508023326 11 286 1.6 4.8 0.00 0.00 0.00 54 1013.8
20260508023101 11 286 0.0 4.8 0.00 0.00 0.00 53 1014.1
20260508022824 11 286 1.6 4.8 0.00 0.00 0.00 53 1013.7
20260508022321 11 286 1.6 4.8 0.00 0.00 0.00 52 1013.6
20260508021755 12 286 1.6 6.4 0.00 0.00 0.00 51 1013.5
20260508021710 12 286 1.6 6.4 0.00 0.00 0.00 50 1013.6
20260508021519 11 286 1.6 6.4 0.00 0.00 0.00 51 1014.0
20260508020701 12 286 1.6 4.8 0.00 0.00 0.00 50 1013.6
20260508020158 12 286 1.6 6.4 0.00 0.00 0.00 50 1013.5
20260508020047 12 286 1.6 6.4 0.00 0.00 0.00 50 1013.9
20260508015658 12 286 1.6 6.4 0.00 0.00 0.00 50 1013.5
20260508015131 12 287 1.6 6.4 0.00 0.00 0.00 49 1013.6
20260508014632 12 287 1.6 6.4 0.00 0.00 0.00 49 1013.6
20260508014602 12 287 0.0 6.4 0.00 0.00 0.00 49 1014.0
20260508014103 12 287 0.0 3.2 0.00 0.00 0.00 48 1013.5
20260508013602 12 287 0.0 3.2 0.00 0.00 0.00 48 1013.6
20260508013038 12 287 1.6 3.2 0.00 0.00 0.00 48 1013.6
20260508013007 12 287 0.0 3.2 0.00 0.00 0.00 48 1014.0
20260508012512 12 287 1.6 3.2 0.00 0.00 0.00 48 1013.6
20260508012012 12 287 0.0 3.2 0.00 0.00 0.00 47 1013.6
20260508011504 12 287 0.0 3.2 0.00 0.00 0.00 47 1013.9
20260508011446 12 287 1.6 3.2 0.00 0.00 0.00 47 1013.5
20260508010944 12 287 1.6 3.2 0.00 0.00 0.00 46 1013.5
20260508010903 12 288 1.6 3.2 0.00 0.00 0.00 46 1013.6
20260508010344 12 273 1.6 3.2 0.00 0.00 0.00 46 1013.5
20260508010039 12 288 0.0 3.2 0.00 0.00 0.00 46 1013.9
20260508005811 12 273 1.6 3.2 0.00 0.00 0.00 46 1013.5
20260508004828 13 273 1.6 6.4 0.00 0.00 0.00 44 1013.5
20260508004515 12 273 0.0 6.4 0.00 0.00 0.00 44 1013.8
20260508004328 13 273 0.0 6.4 0.00 0.00 0.00 44 1013.4
20260508004023 13 273 0.0 1.6 0.00 0.00 0.00 43 1013.3
20260508003243 13 273 0.0 1.6 0.00 0.00 0.00 42 1013.3
20260508003042 13 273 0.0 1.6 0.00 0.00 0.00 42 1013.7
20260508002740 13 273 0.0 1.6 0.00 0.00 0.00 42 1013.3
20260508002238 13 273 0.0 4.8 0.00 0.00 0.00 42 1013.3
20260508002002 14 273 1.6 4.8 0.00 0.00 0.00 40 1013.2
20260508001559 13 291 0.0 3.2 0.00 0.00 0.00 41 1013.6
20260508001226 14 287 1.6 6.4 0.00 0.00 0.00 41 1013.2
20260508000951 14 287 3.2 6.4 0.00 0.00 0.00 39 1013.3
20260508000208 14 287 3.2 11.3 0.00 0.00 0.00 39 1013.2
20260508000022 14 287 1.6 9.7 0.00 0.00 0.00 41 1013.6
20260507235643 15 287 3.2 11.3 0.00 0.00 0.00 39 1013.2
20260507235144 15 287 3.2 6.4 0.00 0.00 0.00 39 1013.2
20260507234622 15 286 3.2 12.9 0.00 0.00 0.00 39 1013.2
20260507234551 15 286 3.2 6.4 0.00 0.00 0.00 39 1013.5
20260507234106 15 163 3.2 12.9 0.00 0.00 0.00 39 1013.1
20260507233606 15 293 4.8 12.9 0.00 0.00 0.00 41 1013.1
20260507233106 15 164 4.8 12.9 0.00 0.00 0.00 38 1013.1
20260507233048 15 163 4.8 12.9 0.00 0.00 0.00 38 1013.5
20260507232825 15 210 3.2 11.3 0.00 0.00 0.00 39 1013.1
20260507232054 15 200 3.2 9.7 0.00 0.00 0.00 44 1013.1
20260507231553 15 147 1.6 6.4 0.00 0.00 0.00 38 1013.1
20260507231527 15 151 1.6 6.4 0.00 0.00 0.00 38 1013.4
20260507231035 15 127 3.2 9.7 0.00 0.00 0.00 38 1013.0
20260507230741 15 126 4.8 11.3 0.00 0.00 0.00 37 1013.1
20260507230056 15 188 4.8 11.3 0.00 0.00 0.00 38 1013.4
20260507230019 15 187 3.2 11.3 0.00 0.00 0.00 40 1013.1
20260507225523 15 205 3.2 14.5 0.00 0.00 0.00 38 1013.0
20260507225005 16 88 3.2 14.5 0.00 0.00 0.00 38 1013.1
20260507224557 15 205 3.2 9.7 0.00 0.00 0.00 36 1013.3
20260507224508 16 138 3.2 9.7 0.00 0.00 0.00 37 1013.0
20260507223939 16 143 3.2 8.0 0.00 0.00 0.00 42 1013.0
20260507223420 16 157 3.2 8.0 0.00 0.00 0.00 38 1013.0
20260507223059 16 230 1.6 8.0 0.00 0.00 0.00 37 1013.4
20260507222921 16 226 3.2 9.7 0.00 0.00 0.00 36 1013.0
20260507222422 16 207 3.2 4.8 0.00 0.00 0.00 37 1013.1
20260507222341 16 234 3.2 6.4 0.00 0.00 0.00 39 1013.1
20260507221523 15 236 1.6 8.0 0.00 0.00 0.00 38 1013.5
20260507221401 15 211 3.2 11.3 0.00 0.00 0.00 39 1013.2
20260507220902 15 206 4.8 14.5 0.00 0.00 0.00 39 1013.2
20260507220357 15 183 4.8 14.5 0.00 0.00 0.00 36 1013.2
20260507220043 15 278 6.4 14.5 0.00 0.00 0.00 36 1013.6
20260507215900 16 185 4.8 16.1 0.00 0.00 0.00 37 1013.3
20260507215355 15 194 4.8 16.1 0.00 0.00 0.00 41 1013.3
20260507214852 15 136 4.8 12.9 0.00 0.00 0.00 37 1013.3
20260507214530 15 211 1.6 12.9 0.00 0.00 0.00 36 1013.7
20260507214350 16 217 6.4 14.5 0.00 0.00 0.00 35 1013.3
20260507213826 16 190 6.4 14.5 0.00 0.00 0.00 39 1013.3
20260507213323 16 189 6.4 14.5 0.00 0.00 0.00 38 1013.3
20260507213033 16 181 6.4 24.1 0.00 0.00 0.00 38 1013.7
20260507212758 16 138 6.4 24.1 0.00 0.00 0.00 38 1013.4
20260507212256 16 211 4.8 9.7 0.00 0.00 0.00 39 1013.3
20260507211731 16 196 4.8 17.7 0.00 0.00 0.00 37 1013.3
20260507211555 16 172 4.8 17.7 0.00 0.00 0.00 36 1013.7
20260507211205 16 263 3.2 17.7 0.00 0.00 0.00 38 1013.4
20260507210639 16 246 3.2 12.9 0.00 0.00 0.00 37 1013.3
20260507210115 16 315 3.2 12.9 0.00 0.00 0.00 37 1013.2
20260507210054 16 322 3.2 12.9 0.00 0.00 0.00 38 1013.6
20260507205549 16 251 3.2 16.1 0.00 0.00 0.00 38 1013.2
20260507205024 16 215 6.4 16.1 0.00 0.00 0.00 39 1013.2
20260507204531 15 140 6.4 16.1 0.00 0.00 0.00 37 1013.6
20260507204456 16 198 8.0 19.3 0.00 0.00 0.00 37 1013.2
20260507204221 16 194 8.0 19.3 0.00 0.00 0.00 39 1013.2
20260507203931 16 209 6.4 16.1 0.00 0.00 0.00 40 1013.2
20260507203016 16 194 6.4 16.1 0.00 0.00 0.00 42 1013.5
20260507202944 16 126 4.8 16.1 0.00 0.00 0.00 42 1013.2
20260507202649 16 237 4.8 16.1 0.00 0.00 0.00 42 1013.1
20260507201912 16 198 6.4 16.1 0.00 0.00 0.00 37 1013.2
20260507201856 16 234 4.8 16.1 0.00 0.00 0.00 37 1013.2
20260507200846 16 242 4.8 12.9 0.00 0.00 0.00 39 1013.3
20260507200319 16 324 4.8 12.9 0.00 0.00 0.00 39 1013.2
20260507200053 15 317 1.6 12.9 0.00 0.00 0.00 41 1013.6
20260507195819 15 231 4.8 12.9 0.00 0.00 0.00 41 1013.3
20260507195251 16 159 6.4 12.9 0.00 0.00 0.00 44 1013.2
20260507194728 16 252 4.8 12.9 0.00 0.00 0.00 40 1013.3
20260507194546 16 284 6.4 12.9 0.00 0.00 0.00 39 1013.7
20260507194157 16 204 6.4 17.7 0.00 0.00 0.00 45 1013.4
20260507193653 15 192 6.4 17.7 0.00 0.00 0.00 38 1013.4
20260507193149 15 115 4.8 14.5 0.00 0.00 0.00 41 1013.6
20260507193028 15 113 3.2 9.7 0.00 0.00 0.00 41 1014.0
20260507192644 15 90 6.4 14.5 0.00 0.00 0.00 37 1013.5
20260507192116 16 124 4.8 14.5 0.00 0.00 0.00 39 1013.6
20260507191613 16 234 4.8 14.5 0.00 0.00 0.00 39 1013.5
20260507191543 15 234 3.2 14.5 0.00 0.00 0.00 39 1014.0
20260507191048 15 103 6.4 27.4 0.00 0.00 0.00 40 1013.5
20260507190521 15 255 6.4 27.4 0.00 0.00 0.00 37 1013.6
20260507190018 15 136 4.8 19.3 0.00 0.00 0.00 41 1013.5
20260507190006 15 101 4.8 14.5 0.00 0.00 0.00 41 1013.9
20260507185453 15 155 6.4 19.3 0.00 0.00 0.00 44 1013.6
20260507184923 15 200 8.0 19.3 0.00 0.00 0.00 44 1013.6
20260507184506 15 71 3.2 19.3 0.00 0.00 0.00 43 1014.1
20260507184422 15 150 8.0 19.3 0.00 0.00 0.00 41 1013.6
20260507183855 15 190 6.4 14.5 0.00 0.00 0.00 40 1013.5
20260507183327 15 203 6.4 19.3 0.00 0.00 0.00 43 1013.7
20260507183055 15 194 6.4 19.3 0.00 0.00 0.00 42 1013.9
20260507183020 15 165 6.4 19.3 0.00 0.00 0.00 45 1014.4
20260507182323 15 170 4.8 12.9 0.00 0.00 0.00 41 1013.9
20260507182021 15 206 6.4 14.5 0.00 0.00 0.00 41 1013.8
20260507181512 15 211 3.2 12.9 0.00 0.00 0.00 43 1014.3
20260507181231 15 155 4.8 14.5 0.00 0.00 0.00 43 1013.9
20260507180705 15 243 4.8 14.5 0.00 0.00 0.00 41 1013.8
20260507180139 15 23 6.4 12.9 0.00 0.00 0.00 42 1014.0
20260507180014 15 240 4.8 12.9 0.00 0.00 0.00 45 1014.4
20260507175635 15 167 4.8 12.9 0.00 0.00 0.00 44 1014.0
20260507175137 15 222 4.8 19.3 0.00 0.00 0.00 45 1014.1
20260507174827 14 184 6.4 19.3 0.00 0.00 0.00 45 1014.1
20260507174549 14 213 6.4 19.3 0.00 0.00 0.00 43 1014.1
20260507174540 14 140 3.2 19.3 0.00 0.00 0.00 45 1014.6
20260507173559 14 207 6.4 19.3 0.00 0.00 0.00 44 1014.2
20260507173053 13 199 9.7 19.3 0.00 0.00 0.00 43 1014.8
20260507173028 14 190 8.0 19.3 0.00 0.00 0.00 43 1014.3
20260507172528 14 26 6.4 14.5 0.00 0.00 0.00 41 1014.4
20260507172023 14 206 6.4 19.3 0.00 0.00 0.00 42 1014.4
20260507172002 13 283 6.4 19.3 0.00 0.00 0.00 41 1014.5
20260507171604 13 199 3.2 19.3 0.00 0.00 0.00 41 1015.0
20260507171010 14 181 6.4 16.1 0.00 0.00 0.00 44 1014.6
20260507170512 13 288 6.4 16.1 0.00 0.00 0.00 44 1014.7
20260507170000 13 286 6.4 19.3 0.00 0.00 0.00 43 1015.2
20260507165952 13 290 6.4 20.9 0.00 0.00 0.00 43 1014.7
20260507165452 13 287 8.0 22.5 0.00 0.00 0.00 47 1014.7
20260507164947 13 167 6.4 22.5 0.00 0.00 0.00 44 1014.8
20260507164502 13 118 3.2 12.9 0.00 0.00 0.00 46 1015.2
20260507164421 13 128 6.4 16.1 0.00 0.00 0.00 45 1014.7
20260507163913 13 209 6.4 27.4 0.00 0.00 0.00 47 1014.9
20260507163413 13 185 4.8 27.4 0.00 0.00 0.00 46 1014.9
20260507163010 13 324 3.2 12.9 0.00 0.00 0.00 44 1015.3
20260507162842 13 211 4.8 12.9 0.00 0.00 0.00 46 1014.9
20260507162342 13 53 6.4 17.7 0.00 0.00 0.00 51 1015.0
20260507162035 12 191 6.4 17.7 0.00 0.00 0.00 43 1015.0
20260507161501 12 151 8.0 17.7 0.00 0.00 0.00 42 1015.4
20260507161312 13 232 4.8 14.5 0.00 0.00 0.00 47 1015.0
20260507160743 13 253 4.8 14.5 0.00 0.00 0.00 45 1015.0
20260507160242 12 286 6.4 19.3 0.00 0.00 0.00 50 1014.9
20260507160103 12 289 4.8 19.3 0.00 0.00 0.00 45 1015.4
20260507155715 12 288 6.4 19.3 0.00 0.00 0.00 48 1015.0
20260507155214 12 288 6.4 17.7 0.00 0.00 0.00 45 1015.0
20260507154904 12 287 8.0 17.7 0.00 0.00 0.00 44 1015.0
20260507154551 12 288 8.0 17.7 0.00 0.00 0.00 45 1015.5
20260507154141 12 290 8.0 17.7 0.00 0.00 0.00 46 1015.0
20260507153901 12 289 6.4 20.9 0.00 0.00 0.00 46 1015.0
20260507153114 12 290 8.0 20.9 0.00 0.00 0.00 44 1015.0
20260507153050 11 290 9.7 20.9 0.00 0.00 0.00 44 1015.4
20260507152808 11 273 8.0 19.3 0.00 0.00 0.00 45 1014.9
20260507152030 11 286 8.0 19.3 0.00 0.00 0.00 46 1014.9
20260507151530 11 286 6.4 19.3 0.00 0.00 0.00 44 1014.9
20260507151502 11 287 8.0 19.3 0.00 0.00 0.00 44 1015.3
20260507151030 12 209 4.8 14.5 0.00 0.00 0.00 47 1014.8
20260507150531 12 130 6.4 14.5 0.00 0.00 0.00 47 1014.8
20260507150045 12 140 3.2 14.5 0.00 0.00 0.00 51 1015.2
20260507150007 12 138 4.8 14.5 0.00 0.00 0.00 51 1014.8
20260507145438 11 102 4.8 12.9 0.00 0.00 0.00 52 1014.7
20260507144933 11 161 6.4 12.9 0.00 0.00 0.00 48 1014.8
20260507144559 11 165 6.4 16.1 0.00 0.00 0.00 48 1015.3
20260507144429 11 215 6.4 16.1 0.00 0.00 0.00 48 1014.9
20260507143928 11 241 4.8 11.3 0.00 0.00 0.00 48 1014.8
20260507143424 11 155 4.8 11.3 0.00 0.00 0.00 51 1014.9
20260507143140 11 123 3.2 11.3 0.00 0.00 0.00 52 1014.9
20260507143002 11 268 3.2 9.7 0.00 0.00 0.00 51 1015.3
20260507142356 11 182 4.8 12.9 0.00 0.00 0.00 48 1014.9
20260507141851 11 296 4.8 12.9 0.00 0.00 0.00 47 1014.9
20260507141538 11 203 3.2 12.9 0.00 0.00 0.00 50 1015.4
20260507141350 11 142 4.8 14.5 0.00 0.00 0.00 51 1014.9
20260507140845 11 255 4.8 14.5 0.00 0.00 0.00 50 1014.9
20260507140344 10 259 6.4 19.3 0.00 0.00 0.00 48 1014.9
20260507140108 10 242 3.2 17.7 0.00 0.00 0.00 50 1015.4
20260507135830 10 188 6.4 19.3 0.00 0.00 0.00 53 1014.9
20260507135333 11 210 4.8 14.5 0.00 0.00 0.00 49 1014.9
20260507134807 11 234 3.2 9.7 0.00 0.00 0.00 56 1014.9
20260507134604 10 237 1.6 9.7 0.00 0.00 0.00 50 1015.3